Forside
METAR-TAF:

METAR-TAF

Lufthavne :

Wittman Regional Airport

Oshkosh, Wisconsin, USA

Breddekreds: 43-58-00N, længdekreds: 088-33-29W, højde: 246 m

Aktuelle vejr

Denne rapport blev lavet for 6 minutter siden, kl. 14:21 UTC
Vind 12 kt fra nordnordøst
Temperatur 1°C
Fugtighed 86%
Tryk 1020 hPa
Sigt: 6.4 km
Overskyet i en højde af 900 ft
dis

METAR: KOSH 311421Z 02012KT 4SM BR OVC009 01/M01 A3011 RMK AO2 SNE16 CIG 006V013 P0000 T00061006

Tid: 09:27 (14:27 UTC)


TAF: fraværende

Vejrobservationer og prognoser fra mere end 4000 lufthavne (METAR og TAF).

De gule og røde prikker repræsenterer de meteorologiske stationer.

Flyt musen over at se navnet på stationen.

Så klik over at se vejr observationer og prognoser.

At skifte det kort: Klik på de grønne knapper med et sort kors for at zoome ind; på den grønne knap med en bindestreg for at zoome ud; eller på de grønne pile for tilstødende kort.


METAR-TAF: